Date String (YYYY-MM-DD hh:mm:ss) UTC,Instrument flags,Ambient pressure (hPa),Sample flow (lpm),Bypass flow (lpm),Sample temperature (°C),Ambient temperature (°C),ASC tube jacket temperature (°C),LED temperature (°C),Box temperature (°C),Sample RH (%),Span deviation,Mass concentration (μg/m³),Mass concentration (μg/m³),Mass concentration (μg/m³)
DateTimeUTC,F1_M11,P_M11,Q1_M11,Q2_M11,T1_M11,T2_M11,T3_M11,T4_M11,T5_M11,U1_M11,ZSPAN_M11,X0_M11,X2_M11,X1_M11
2023-01-16 16:00:00,,0812.0,5.00,0.00,22.5,21.3,00.0,31.3,24.3,10.7,0000.0,0002.46,0000.96,0000.83
2023-01-16 16:01:00,,0812.1,5.01,0.00,22.5,21.2,00.0,31.3,24.3,12.0,0000.0,0002.13,0000.88,0000.77
2023-01-16 16:02:00,,0812.0,5.02,0.00,22.5,21.1,00.0,31.3,24.2,12.0,0000.0,0002.02,0000.82,0000.72
2023-01-16 16:03:00,,0812.1,5.01,0.00,22.5,21.1,00.0,31.3,24.2,11.4,0000.0,0002.07,0000.80,0000.67
2023-01-16 16:04:00,,0811.9,4.99,0.00,22.5,21.1,00.0,31.3,24.2,10.4,0000.0,0001.97,0000.74,0000.63
2023-01-16 16:05:00,,0811.8,5.00,0.00,22.5,21.1,00.0,31.3,24.2,10.1,0000.0,0001.89,0000.68,0000.59
2023-01-16 16:06:00,,0811.9,5.00,0.00,22.5,21.1,00.0,31.3,24.2,10.0,0000.0,0000.97,0000.64,0000.54
2023-01-16 16:07:00,,0811.8,5.00,0.00,22.4,21.1,00.0,31.3,24.2,10.6,0000.0,0000.97,0000.64,0000.53
2023-01-16 16:08:00,,0811.9,4.98,0.00,22.4,21.1,00.0,31.3,24.2,10.5,0000.0,0000.96,0000.62,0000.51
2023-01-16 16:09:00,,0811.9,4.99,0.00,22.4,21.1,00.0,31.3,24.2,09.9,0000.0,0000.95,0000.61,0000.49
2023-01-16 16:10:00,,0811.8,5.01,0.00,22.4,21.1,00.0,31.3,24.2,10.0,0000.0,0000.87,0000.56,0000.46
2023-01-16 16:11:00,,0811.8,5.00,0.00,22.4,21.1,00.0,31.3,24.2,10.1,0000.0,0000.87,0000.54,0000.44
2023-01-16 16:12:00,,0811.9,4.99,0.00,22.4,21.1,00.0,31.3,24.2,10.1,0000.0,0001.04,0000.50,0000.40
2023-01-16 16:13:00,,0811.8,5.02,0.00,22.4,21.1,00.0,31.3,24.2,10.0,0000.0,0001.12,0000.46,0000.35
2023-01-16 16:14:00,,0811.9,4.99,0.00,22.4,21.2,00.0,31.3,24.2,10.5,0000.0,0001.07,0000.41,0000.33
2023-01-16 16:15:00,,0812.0,5.03,0.00,22.4,21.2,00.0,31.3,24.2,12.7,0000.0,0001.34,0000.54,0000.43
2023-01-16 16:16:00,,0812.0,5.01,0.00,22.5,21.2,00.0,31.3,24.3,13.0,0000.0,0001.61,0000.76,0000.62
2023-01-16 16:17:00,,0812.1,5.01,0.00,22.5,21.3,00.0,31.3,24.3,12.6,0000.0,0002.02,0001.03,0000.88
2023-01-16 16:18:00,,0812.1,5.00,0.00,22.5,21.3,00.0,31.3,24.3,12.0,0000.0,0002.23,0001.17,0001.01
2023-01-16 16:19:00,,0812.1,5.00,0.00,22.5,21.3,00.0,31.3,24.2,13.0,0000.0,0003.30,0001.45,0001.23
2023-01-16 16:20:00,,0812.1,4.99,0.00,22.5,21.3,00.0,31.3,24.3,13.3,0000.0,0003.89,0001.79,0001.54
2023-01-16 16:21:00,,0812.1,5.01,0.00,22.5,21.3,00.0,31.3,24.3,12.8,0000.0,0004.37,0002.06,0001.78
2023-01-16 16:22:00,,0812.1,5.00,0.00,22.5,21.3,00.0,31.3,24.3,12.7,0000.0,0004.80,0002.34,0002.03
2023-01-16 16:23:00,,0812.0,5.00,0.00,22.5,21.3,00.0,31.3,24.3,12.8,0000.0,0005.20,0002.66,0002.28
2023-01-16 16:24:00,,0812.0,5.00,0.00,22.5,21.3,00.0,31.3,24.3,11.4,0000.0,0005.33,0002.82,0002.40
2023-01-16 16:25:00,,0812.1,4.98,0.00,22.5,21.3,00.0,31.3,24.3,11.1,0000.0,0005.45,0002.89,0002.43
2023-01-16 16:26:00,,0812.1,5.01,0.00,22.5,21.4,00.0,31.3,24.4,11.7,0000.0,0005.46,0002.96,0002.51
2023-01-16 16:27:00,,0812.0,5.01,0.00,22.5,21.4,00.0,31.3,24.4,10.7,0000.0,0005.39,0002.92,0002.50
2023-01-16 16:28:00,,0812.1,5.00,0.00,22.6,21.4,00.0,31.4,24.4,10.5,0000.0,0005.23,0002.73,0002.34
2023-01-16 16:29:00,,0812.1,5.00,0.00,22.6,21.4,00.0,31.4,24.4,10.3,0000.0,0004.92,0002.50,0002.11
2023-01-16 16:30:00,,0812.0,5.00,0.00,22.6,21.4,00.0,31.4,24.4,11.6,0000.0,0004.98,0002.49,0002.08
2023-01-16 16:31:00,,0812.1,5.01,0.00,22.6,21.4,00.0,31.4,24.4,14.5,0000.0,0005.09,0002.80,0002.30
2023-01-16 16:32:00,,0812.2,5.01,0.00,22.6,21.4,00.0,31.4,24.4,14.7,0000.0,0005.51,0003.08,0002.51
2023-01-16 16:33:00,,0812.2,5.00,0.00,22.6,21.4,00.0,31.4,24.4,14.8,0000.0,0006.12,0003.31,0002.79
2023-01-16 16:34:00,,0812.2,5.01,0.00,22.6,21.4,00.0,31.4,24.4,14.6,0000.0,0007.71,0003.53,0003.11
2023-01-16 16:35:00,,0812.1,4.99,0.00,22.6,21.4,00.0,31.4,24.4,14.4,0000.0,0008.21,0003.70,0003.27
2023-01-16 16:36:00,,0812.3,5.00,0.00,22.6,21.4,00.0,31.4,24.4,12.7,0000.0,0008.42,0003.85,0003.39
2023-01-16 16:37:00,,0812.3,4.98,0.00,22.6,21.4,00.0,31.4,24.3,13.7,0000.0,0008.66,0004.03,0003.55
2023-01-16 16:38:00,,0812.3,4.99,0.00,22.6,21.3,00.0,31.4,24.3,14.5,0000.0,0009.13,0004.40,0003.84
2023-01-16 16:39:00,,0812.3,5.01,0.00,22.6,21.3,00.0,31.4,24.3,13.2,0000.0,0009.62,0004.64,0004.05
2023-01-16 16:40:00,,0812.3,5.00,0.00,22.6,21.2,00.0,31.4,24.3,12.8,0000.0,0009.89,0004.81,0004.19
2023-01-16 16:41:00,,0812.3,5.00,0.00,22.5,21.1,00.0,31.4,24.2,12.2,0000.0,0010.10,0004.89,0004.24
2023-01-16 16:42:00,,0812.2,4.98,0.00,22.5,21.1,00.0,31.4,24.2,11.7,0000.0,0009.65,0004.66,0004.07
2023-01-16 16:43:00,,0812.2,4.99,0.00,22.5,21.1,00.0,31.4,24.3,12.0,0000.0,0009.19,0004.41,0003.87
2023-01-16 16:44:00,,0812.3,5.01,0.00,22.5,21.0,00.0,31.4,24.2,12.0,0000.0,0008.88,0004.16,0003.65
2023-01-16 16:45:00,,0812.3,5.00,0.00,22.4,20.8,00.0,31.4,24.1,12.2,0000.0,0008.20,0003.89,0003.43
2023-01-16 16:46:00,,0812.1,5.02,0.00,22.4,20.6,00.0,31.4,24.1,11.7,0000.0,0007.99,0003.65,0003.23
2023-01-16 16:47:00,,0812.2,5.00,0.00,22.4,20.7,00.0,31.3,24.1,11.2,0000.0,0007.77,0003.50,0003.07
2023-01-16 16:48:00,,0812.2,4.99,0.00,22.4,20.8,00.0,31.3,24.1,11.3,0000.0,0007.48,0003.28,0002.76
2023-01-16 16:49:00,,0812.2,4.99,0.00,22.4,20.9,00.0,31.3,24.1,11.4,0000.0,0006.62,0002.77,0002.22
2023-01-16 16:50:00,,0812.2,5.01,0.00,22.4,21.0,00.0,31.3,24.2,13.8,0000.0,0006.37,0002.79,0002.23
2023-01-16 16:51:00,,0812.2,5.02,0.00,22.4,21.0,00.0,31.3,24.2,13.3,0000.0,0006.65,0002.98,0002.37
2023-01-16 16:52:00,,0812.2,4.99,0.00,22.4,21.1,00.0,31.3,24.3,12.5,0000.0,0006.53,0003.04,0002.47
2023-01-16 16:53:00,,0812.2,4.99,0.00,22.4,21.1,00.0,31.3,24.2,12.7,0000.0,0006.80,0003.15,0002.59
2023-01-16 16:54:00,,0812.3,5.00,0.00,22.4,21.2,00.0,31.3,24.2,12.4,0000.0,0007.09,0003.24,0002.71
2023-01-16 16:55:00,,0812.3,5.01,0.00,22.4,21.2,00.0,31.3,24.3,12.3,0000.0,0006.89,0003.26,0002.78
2023-01-16 16:56:00,,0812.3,5.00,0.00,22.5,21.2,00.0,31.3,24.3,12.4,0000.0,0006.27,0003.33,0002.86
2023-01-16 16:57:00,,0812.2,5.00,0.00,22.5,21.2,00.0,31.3,24.3,12.1,0000.0,0005.53,0003.38,0002.94
2023-01-16 16:58:00,,0812.1,5.01,0.00,22.5,21.2,00.0,31.3,24.3,12.3,0000.0,0005.57,0003.42,0003.02
2023-01-16 16:59:00,,0812.2,5.01,0.00,22.5,21.2,00.0,31.3,24.3,13.5,0000.0,0005.94,0003.55,0003.17
